Torna al catalogo

THORAD AGENA D DEB

AttivoLEO
NORAD 5151·DEBRIS·🇺🇸 United States

Lanciato Apr 8, 1970 da Vandenberg Space Force Base

Loading…

Prossimi Passaggi (prossime 24 ore)

TLE

AggiornatoSource: Space-Track

Epoca: Sep 13, 2026, 21:59 UTC

1  5151U 70025JU  26256.91641470  .00000349  00000-0  48715-3 0  9993
2  5151 100.0612 130.9510 0002854 349.2800  24.3151 13.65462150295890

Traccia THORAD AGENA D DEB in tempo reale con AllMySat

Download on the App Store